sat.trackr.live / text

‹ back to catalog

STARLINK-6031

NORAD 56810 · 2023-078AV

PAYLOAD ACTIVE UNKNOWN

§ Identity

Operator
Country
US
Launch date
2023-05-31
Launch site
AFWTR
Launch vehicle
Mass (kg)
RCS (m²)

Purposes: comms

External: N2YO · Heavens-Above · Gunter

§ Orbital elements

Epoch: 2026-09-20T07:25:33.379104Z

Period
96.11 min
Inclination
69.9997°
Eccentricity
0.0003231
Mean motion
14.98333303 rev/d
Perigee alt
569.8 km
Apogee alt
574.3 km
Semi-major
6,950.2 km
B*
3.9150e-5
RAAN
213.6963°
Arg perigee
265.7209°
Mean anomaly
94.3580°
Rev number
18,183

§ Raw data

STARLINK-60311 56810U 23078AV  26263.30941411  .00000374  00000+0  39150-4 0  99972 56810  69.9997 213.6963 0003231 265.7209  94.3580 14.98333303181838

JSON: /api/v1/satellites/56810 · /tle

For live sub-satellite position, see the globe view (requires WebGL).

§ Visibility from observer

Set your observer location to see the next 7 days of passes ≥ 10°. The values pass through the URL so the page stays shareable.

No JS? Fill the form by hand. The geolocation button needs JavaScript.